Regional Weather Roundup
Issued by NWS

Home | Current Version | Previous Version | Text Only | Print | Product List | Glossary Off
Versions: 1 2 3 4 5 6 7 8 9 10 11 12 13 14 15 16 17 18 19 20 21 22 23 24 25 26 27 28 29 30 31 32 33 34 35 36 37 38 39 40 41 42 43 44 45 46 47 48 49 50

000
ASUS45 KTFX 211710
RWRMT
MONTANA REGIONAL WEATHER ROUNDUP
NATIONAL WEATHER SERVICE GREAT FALLS MT
1100 AM MDT THU SEP 21 2017

NOTE: "FAIR" INDICATES FEW OR NO CLOUDS BELOW 12000 FEET WITH NO
SIGNIFICANT WEATHER AND/OR OBSTRUCTIONS TO VISIBILITY.

MTZ001>007-043-211800-
WEST OF THE DIVIDE

CITY           SKY/WX    TMP DP  RH WIND       PRES   REMARKS
KALISPELL      MOSUNNY   48  38  68 CALM      29.85R
MISSOULA       PTSUNNY   46  39  76 CALM      29.86R
BUTTE          CLOUDY    37  33  85 SE3       29.85R
MULLAN PASS    CLOUDY    32  30  92 CALM      29.83R FOG
ANACONDA         N/A     43  28  56 SE6       29.83F
DEER LODGE       N/A     39  34  81 NE5       29.86S
EUREKA           N/A     46  39  76 CALM      29.84S
HAMILTON         N/A     48  34  57 CALM      29.84S
LIBBY            N/A     46  37  71 CALM      29.85F
$$

MTZ008-052>055-211800-
SOUTHWEST MONTANA

CITY           SKY/WX    TMP DP  RH WIND       PRES   REMARKS
BOZEMAN        CLOUDY    45  33  63 SW3       29.84R
DILLON         LGT RAIN  39  31  72 N3        29.84R
W YELLOWSTONE  LGT SNOW  34  34 100 MISG      29.81F
ENNIS          MIX PCPN  41  32  70 N12       29.86F
THREE FORKS      N/A     46  31  56 CALM      29.85R
$$

MTZ009-010-012-014-046-048-049-054-211800-
EAST SLOPES AND CENTRAL MONTANA

CITY           SKY/WX    TMP DP  RH WIND       PRES   REMARKS
CUT BANK       SUNNY     45  32  60 NW7       29.81R
GREAT FALLS    MOSUNNY   49  29  46 N6        29.82S
MALMSTROM AFB  MOSUNNY   47  31  52 CALM      29.83R
HELENA         MOSUNNY   44  35  70 SW3       29.84R
BOWMANS CRNR     N/A     45  28  52 W8        29.79F
CHOTEAU          N/A     46  32  57 SE5       29.83F
FAIRFIELD        N/A     45  32  61 E6        29.81S
POWER            N/A     46  33  61 N6        29.81S
RAYNESFORD       N/A     46  29  49 NW6       29.82S
ULM              N/A     48  31  51 N5        29.82S
$$

MTZ011-013-016-021-045-047-050-051-211800-
NORTH CENTRAL MONTANA

CITY           SKY/WX    TMP DP  RH WIND       PRES   REMARKS
HAVRE          PTSUNNY   46  35  65 VRB3      29.84R
LEWISTOWN      CLOUDY    47  27  45 NW8       29.81S
N BAR RANCH      N/A     48  25  40 NW15G21   29.82F
CHINOOK          N/A     45  36  70 W9        29.84R
DENTON           N/A     48  30  49 NW7       29.78R
GEYSER           N/A     47  28  46 NW12      29.80F
GRASS RANGE      N/A     49  28  43 NW8       29.78R
JUDITH GAP       N/A     46  26  45 N14       29.80F
WINIFRED         N/A     47  32  55 NW8       29.81R
$$

MTZ017>020-022>027-061-062-211800-
NORTHEAST MONTANA

CITY           SKY/WX    TMP DP  RH WIND       PRES   REMARKS
GLASGOW        CLOUDY    50  33  52 NW10      29.77R
JORDAN           N/A     54  33  45 NW9       29.78R
SIDNEY         CLOUDY    55  41  59 NW6       29.73R
WOLF POINT     CLOUDY    58  33  39 W6        29.75R
MALTA          SUNNY     48  34  57 W15G21    29.80R
POPLAR           N/A     55  34  44 W5        29.75R
$$

MTZ028>42-056>058-211800-
SOUTHCENTRAL AND SOUTHEAST MONTANA

CITY           SKY/WX    TMP DP  RH WIND       PRES   REMARKS
BAKER          SUNNY     61  39  44 N14       29.74R
BILLINGS       LGT RAIN  48  44  86 S9        29.81R
LIVINGSTON     CLOUDY    45  36  70 SW10      29.82R
MILES CITY     CLOUDY    53  38  56 NW13      29.79R
BIG TIMBER     PTSUNNY   45  37  76 S8        29.85R
HARLOWTON        N/A     48  27  45 MISG      29.81S
LAUREL           N/A     48  45  87 SE5       29.82R
$$

REGIONAL REPORTS...DAKOTAS

CITY           SKY/WX    TMP DP  RH WIND       PRES   REMARKS
WILLISTON      LGT RAIN  52  46  80 CALM      29.71S
MINOT          CLOUDY    62  46  55 N5        29.69F
DICKINSON      CLOUDY    64  39  39 N12       29.69R
BEACH            N/A     59  37  44 N17       29.77R
CROSBY           N/A     55  41  58 W7        29.71F
TIOGA            N/A     55  48  76 SW5       29.72R
WATFORD CITY     N/A     57  43  58 NW3       29.71S
BISMARCK       SUNNY     73  51  46 S23G29    29.67F
GRAND FORKS    MOSUNNY   72  51  47 S18G28    29.79F
FARGO          SUNNY     72  47  40 S20G25    29.81S
BUFFALO SD       N/A     66  36  32 N17       29.64R
RAPID CITY     SUNNY     72  41  33 N8        29.68S
$$

REGIONAL REPORTS...WYOMING/IDAHO/WASHINGTON

CITY           SKY/WX    TMP DP  RH WIND       PRES   REMARKS
GILLETTE       SUNNY     58  39  49 N13       29.76R
SHERIDAN       CLOUDY    52  43  71 NW10      29.80R
BUFFALO WY     PTSUNNY   54  38  54 NW8       29.81R
CODY           LGT RAIN  42  40  92 N8        29.81S
IDAHO FALLS    LGT RAIN  39  37  92 SW6       29.84R
SALMON         MOSUNNY   43  36  76 CALM      29.85S
BOISE          CLOUDY    49  44  83 NW6       29.83S
SPOKANE        LGT RAIN  43  43 100 S5        29.86S FOG
$$

REGIONAL REPORTS...ALBERTA

CITY           SKY/WX    TMP DP  RH WIND       PRES   REMARKS
EDMONTON       LGT RAIN  39  37  93 N12G21    29.81R WCI  32
CALGARY        LGT RAIN  37  34  87 NW18G24   29.82R FOG     WCI  27
LETHBRIDGE     CLOUDY    43  32  65 NW10G20   29.84R
MEDICINE HAT   CLOUDY    46  34  61 W15G24    29.80R
$$

REGIONAL REPORTS...SASKATCHEWAN

CITY           SKY/WX    TMP DP  RH WIND       PRES   REMARKS
SWIFT CURRENT  CLOUDY    45  34  65 W16G24    29.74S
REGINA         PTSUNNY   52  36  54 NW14G22   29.74R
SASKATOON      CLOUDY    45  39  81 SW15      29.70R
$$



USA.gov is the U.S. government's official web portal to all federal, state and local government web resources and services.